www.pogodaiklimat.ru

Погода и климат >> Архив погоды >> Доминиканская Республика >> Лас Америкас


ПОГОДА в Лас Америкас

  • Прогноз погоды в Лас Америкас
  • Монитор погоды в Лас Америкас

АРХИВ ПОГОДЫ в Лас Америкас

Время (UTC), дата Ветер
(напр.,м/с)
 
Видим.   Явления Облачность Т
(С)
Тd
(С)
f
(%)
Тe
(С)
Тes
(С)
Комфортность P
(гПа)
Po
(гПа)
Тmin
(С)
Tmax
(С)
R
(мм)
R24
(мм)
S
(см)
15 18.08 В 4 16 км 8/8 540 м
[Cb cap Cs]
+30.2 +25.1 74 +44 +46 опасность
перегрева
1016.3 1014.2
18 18.08 ЮВ 4 16 км 5/4 600 м
[Cb cap Ci]
+32.8 +22.9 56 +43 +50 опасность
перегрева
1015.2 1013.2 +21.8 +33.2
21 18.08 ЮВ 6 16 км 6/5 600 м
[Cb cap Cs]
+31.5 +23.1 61 +42 +43 опасность
перегрева
1014.2 1012.2
00 19.08 В 4 16 км зарница 5/4 540 м
[Cb cap Cs]
+28.0 +23.6 77 +38 +38 очень
душно
1015.0 1012.9 +21.8 +33.2
03 19.08 СВ 3 16 км зарница {гроза, дождь} 8/5 480 м
[Cb cap Ac As Cs]
+25.0 +23.3 90 +33 +33 очень
душно
1016.6 1014.5 0.7
06 19.08 С 3 16 км зарница {гроза, дождь} 9/6 480 м
[Cb cap Ac trans Cs]
+24.0 +23.1 95 +32 +32 очень
душно
1015.5 1013.4 +21.8 +33.2
09 19.08 С 2 16 км зарница {гроза, дождь} 9/8 420 м
[Cb cap As op Cs]
+23.6 +22.9 96 +31 +31 очень
душно
1015.5 1013.4 1
12 19.08 С 2 8000 м слаб. дождь {гроза} 10/9 450 м
[Cb cap As op]
+24.4 +23.8 96 +33 +33 очень
душно
1016.7 1014.6 +23.0 +33.2 8
15 19.08 СВ 4 16 км {дождь} 10/6 480 м
[Cb cap As op]
+27.0 +25.2 90 +39 +40 очень
душно
1017.1 1015.0 0.0
18 19.08 ЮВ 3 16 км 9/6 600 м
[Cb cap Ac cuf Ci fib]
+30.8 +25.2 72 +45 +49 опасность
перегрева
1015.5 1013.4 +23.0 +31.5
21 19.08 ЮВ 3 16 км 9/6 540 м
[Cb cap Ac cuf Ci fib]
+30.6 +24.0 68 +42 +43 опасность
перегрева
1014.3 1012.2
00 20.08 С 2 16 км 9/6 90 м
[Cb cap Cs]
+28.0 +25.4 86 +41 +41 опасность
перегрева
1015.5 1013.4 +23.0 +32.0
03 20.08 С 2 16 км 6/5 480 м
[Cb cap Cs]
+25.2 +24.0 93 +35 +35 очень
душно
1016.7 1014.6
06 20.08 СВ 2 16 км 6/5 480 м
[Cb cap Cs]
+24.5 +23.7 95 +33 +33 очень
душно
1015.8 1013.7 +23.0 +32.0
09 20.08 С 4 16 км 6/5 480 м
[Cb cap Cs]
+24.0 +23.2 95 +32 +32 очень
душно
1016.0 1013.9
12 20.08 С 2 16 км 6/4 540 м
[Cb cap Cs]
+26.0 +24.2 90 +36 +38 очень
душно
1017.3 1015.2 +24.0 +32.0
15 20.08 ЮВ 2 16 км 5/5 600 м
[Cb cap Cs]
+31.8 +25.7 70 +47 +56 опасность
перегрева
1017.6 1015.5
18 20.08 ЮВ 4 16 км 8/8 660 м
[Cb cap Cs]
+33.0 +24.8 62 +46 +49 опасность
перегрева
1015.5 1013.5 +24.0 +34.0
21 20.08 В 2 16 км 9/9 600 м
[Cb cap Cs]
+30.4 +25.3 74 +44 +45 опасность
перегрева
1014.6 1012.5
00 21.08 СВ 2 16 км 8/4 540 м
[Cu med, cong Ci]
+27.3 +24.0 82 +38 +38 очень
душно
1015.8 1013.7 +24.0 +34.0
03 21.08 СВ 3 16 км 4/4 480 м
[Cb cap Ci fib]
+25.8 +23.7 88 +35 +35 очень
душно
1017.2 1015.1
06 21.08 СВ 2 16 км 4/4 540 м
[Cu med, cong]
+25.0 +23.8 93 +34 +34 очень
душно
1016.2 1014.1 +24.0 +34.0
12 21.08 С 2 16 км 4/4 480 м
[Cb cap]
+27.0 +24.6 87 +38 +40 очень
душно
1016.7 1014.6 +24.2 +34.0
15 21.08 ЮВ 2 16 км 4/4 660 м
[Cu hum]
+32.2 +23.7 61 +44 +55 опасность
перегрева
1016.7 1014.7
18 21.08 ЮВ 4 16 км 4/4 720 м
[Cu med, cong]
+33.5 +23.8 57 +45 +53 опасность
перегрева
1014.8 1012.8 +24.2 +34.2
21 21.08 Ю 3 16 км 5/5 660 м
[Cb cap]
+31.5 +23.9 64 +43 +45 опасность
перегрева
1013.7 1011.7
00 22.08 штиль 0 16 км 5/5 540 м
[Cb cap]
+26.7 +24.4 87 +37 +37 очень
душно
1014.7 1012.6 +24.2 +34.2
03 22.08 СВ 2 16 км {ливн. осадки} 6/5 480 м
[Cb cap Ac As]
+26.2 +24.4 90 +37 +37 очень
душно
1016.6 1014.5 0.0
06 22.08 СВ 2 16 км {ливн. осадки} 4/3 540 м
[Sc Ac As]
+24.8 +23.6 93 +34 +34 очень
душно
1015.7 1013.6 +24.2 +34.2
09 22.08 н/о +22.3 1015.1
12 22.08 С 2 16 км 6/3 540 м
[Cu med, cong Ac trans]
+25.6 +22.7 84 +34 +35 очень
душно
1016.2 1014.1 +23.5 +34.2
15 22.08 В 3 16 км 4/4 600 м
[Cu med, cong]
+29.6 +23.0 68 +40 +49 очень
душно
1016.0 1013.9
18 22.08 Ю 5 8000 м осадки на расстоянии 6/6 540 м
[Cb cap]
+32.5 +23.7 60 +44 +48 опасность
перегрева
1016.8 1014.8 +23.5 +34.0
21 22.08 ЮВ 3 16 км {гроза} 9/6 540 м
[Cb cap Cs]
+29.5 +24.6 75 +42 +43 опасность
перегрева
1013.5 1011.4
00 23.08 штиль 0 16 км {гроза} 6/3 540 м
[Cu med, cong Cs]
+27.0 +23.6 82 +37 +37 очень
душно
1014.6 1012.5 +23.5 +34.0
06 23.08 СВ 2 16 км 4/4 480 м
[Cb cap]
+25.2 +23.5 90 +34 +34 очень
душно
1015.4 1013.3 +23.5 +34.0
12 23.08 В 2 8000 м осадки на расстоянии 9/5 480 м
[Cb cap As op Cs]
+25.0 +24.1 95 +34 +35 очень
душно
1016.1 1014.0 +23.2 +34.0 1
15 23.08 ЮВ 5 8000 м слаб. дождь 9/8 420 м
[Cb cap Cs]
+29.3 +25.5 80 +43 +45 опасность
перегрева
1016.8 1014.7 13
18 23.08 ЮВ 6 16 км {дождь} 5/5 600 м
[Cb cap Cs]
+31.0 +24.4 68 +43 +47 опасность
перегрева
1014.8 1012.7 +23.2 +32.0
21 23.08 ЮВ 5 16 км 4/4 600 м
[Cb cap Ci ing]
+30.6 +24.3 69 +43 +44 опасность
перегрева
1014.2 1012.1
00 24.08 В 4 16 км 4/4 540 м
[Cb cap Cs]
+28.6 +24.4 78 +40 +40 очень
душно
1014.9 1012.8 +23.2 +32.5
03 24.08 СВ 2 8000 м слаб. дождь 5/5 480 м
[Cb cap Cs]
+26.3 +23.6 85 +36 +36 очень
душно
1016.7 1014.6 0.0
09 24.08 С 2 16 км {дождь} 4/4 480 м
[Cb cap Ci fib]
+24.0 +23.2 95 +32 +32 очень
душно
1014.9 1012.8
12 24.08 СВ 2 16 км 4/4 480 м
[Cb cap Cs]
+26.0 +24.1 89 +36 +38 очень
душно
1017.0 1014.9 +23.7 +32.5
15 24.08 ЮВ 4 16 км 5/5 600 м
[Cu med, cong]
+31.2 +24.1 66 +43 +49 опасность
перегрева
1017.0 1014.9
18 24.08 ЮВ 5 16 км 5/4 600 м
[Cb cap Ci fib]
+32.4 +22.5 56 +42 +48 опасность
перегрева
1015.6 1013.6 +23.7 +33.5
00 25.08 ЮВ 2 16 км 8/5 540 м
[Cb cap Cs]
+27.8 +25.1 85 +40 +40 очень
душно
1015.0 1012.9 +23.7 +33.5
03 25.08 СВ 2 16 км 6/3 480 м
[Cu med, cong Cs]
+26.0 +23.5 86 +35 +35 очень
душно
1016.8 1014.7
06 25.08 СВ 2 16 км 8/4 480 м
[Cb cap Ci fib]
+24.4 +23.2 93 +33 +33 очень
душно
1015.9 1013.8 +23.7 +33.5
09 25.08 С 2 16 км 8/4 480 м
[Cb cap Ci fib]
+24.0 +23.2 95 +32 +32 очень
душно
1015.1 1013.0

 

Местоположение метеостанции Лас Америкас (Доминиканская Республика): широта 18.43 долгота -69.66 высота над уровнем моря 18 м.

В архиве по умолчанию представлена погода в Лас Америкас за последнюю неделю. Архивные данные за месяц целиком и за предыдущие месяцы, начиная с января 2011 года, Вы можете получить, выбрав интересующий диапазон дат из раскрывающегося списка и нажав кнопку "Ввод!".


*Определитесь, кто Вы:
робот инопланетянин человек

Внимание! Время в таблицах - всемирное. Для получения местного времени необходимо прибавить поправку, которая равна -4 ч.

Смотрите также архив погоды в соседних городах и на ближайших метеорологических станциях:

Погода в Санто-Доминго (Доминиканская Республика) (23 км)
Погода в Сабана де ла Мар (Доминиканская Республика) (75 км)
Погода в Ла Романа аэропорту (Доминиканская Республика) (78 км)
Погода в Пунта-Кане (Доминиканская Республика) (138 км)
Погода в Бараоне (Доминиканская Республика) (154 км)
Погода в Сантьяго (Доминиканская Республика) (158 км)
Погода в Пуэрто-Плате (Доминиканская Республика) (174 км)
Погода в Шарлотта-Амалии (Виргинские Острова) (496 км)
Погода в Пунта-де-Маиси (Куба) (513 км)
Погода Королевы Беатрикс аэропорту (Аруба) (661 км)

Пояснения к столбцам:

Ветер - указаны скорость ветра в м/с - средняя за 10 мин, порывы в срок и между сроками (в фигурных скобках) и направление, откуда дует ветер: С - северный, СВ - северо-восточный, В - восточный, ЮВ - юго-восточный, Ю - южный, ЮЗ - юго-западный, З - западный, СЗ - северо-западный.
Видимость - горизонтальная дальность видимости в метрах или километрах. При видимости от 1 до 10 км при отсутствии осадков обычно наблюдается дымка, при ухудшении видимости до 1 км и менее - туман. В сухую погоду видимость может ухудшаться дымом, пылью или мглою.
Явления - указаны атмосферные явления, наблюдавшиеся в срок или в последний час перед сроком; фигурными скобками обозначены явления, наблюдавшиеся между сроками (за 1-3 часа до срока); квадратными скобками обозначены град или гололедные отложения с указанием их диаметра в мм.
Облачность - указаны через наклонную черту общая и нижняя облачность в баллах и высота нижней границы облаков в метрах; квадратными скобками обозначены формы облаков: Ci - перистые, Cs - перисто-слоистые, Cc - перисто-кучевые, Ac - высококучевые, As - высокослоистые, Sc - слоисто-кучевые, Ns - слоисто-дождевые, Cu - кучевые, Cb - кучево-дождевые. Подробнее классификацию облаков см. в Атласе облаков (PDF).
T - Температура воздуха - температура, измеренная на высоте 2 м над землей.
Td - Температура точки росы - температура, при понижении до которой содержащийся в воздухе водяной пар достигнет насыщения.
f - Относительная влажность воздуха - влажноcть воздуха, измеренная на высоте 2 м над землей.
Te - Эффективная температура - температура, которую ощущает одетый по сезону человек в тени. Характеристика душности погоды. При расчете учитывается влияние влажности воздуха и скорости ветра на теплоощущения человека.
Tes - Эффективная температура на солнце - температура, которую ощущает человек, с поправкой на солнечный нагрев. Характеристика знойности погоды. Зависит от высоты солнца над горизонтом, облачности и скорости ветра. Ночью, в пасмурную погоду, а также при ветре 12 м/с и более поправка равна нулю.
P - Атмосферное давление - приведенное к уровню моря атмосферное давление.
Po - Атмосферное давление - измеренное на уровне метеостанции атмосферное давление.
Tmin - Минимальная температура - минимум температуры воздуха на высоте 2 м над землей.
Tmax - Максимальная температура - максимум температуры воздуха на высоте 2 м над землей.
R - Количество осадков - Количество выпавших осадков за период времени, мм. При наведении курсора мыши на число - период времени, за который выпало указанное количество осадков.
R24 - Количество осадков - Количество выпавших осадков за 24 часа, мм.
S - Снежный покров - Высота снежного покрова, см. При наведении курсора мыши на число - состояние снежного покрова и степень покрытия местности в баллах.